Index of /20260411/WXO-DD/model_rdps/10km/12/076
Name Last modified Size Description
Parent Directory -
20260411T12Z_MSC_RDPS_AbsoluteVorticity_IsbL-0250_RLatLon0.09_PT076H.grib2 2026-04-11 15:11 596K
20260411T12Z_MSC_RDPS_AbsoluteVorticity_IsbL-0500_RLatLon0.09_PT076H.grib2 2026-04-11 15:11 557K
20260411T12Z_MSC_RDPS_AbsoluteVorticity_IsbL-0700_RLatLon0.09_PT076H.grib2 2026-04-11 15:11 618K
20260411T12Z_MSC_RDPS_AbsoluteVorticity_IsbL-0850_RLatLon0.09_PT076H.grib2 2026-04-11 15:11 793K
20260411T12Z_MSC_RDPS_AirTemp_AGL-120m_RLatLon0.09_PT076H.grib2 2026-04-11 15:11 385K
20260411T12Z_MSC_RDPS_AirTemp_AGL-2m_RLatLon0.09_PT076H.grib2 2026-04-11 15:11 646K
20260411T12Z_MSC_RDPS_AirTemp_AGL-40m_RLatLon0.09_PT076H.grib2 2026-04-11 15:11 413K
20260411T12Z_MSC_RDPS_AirTemp_AGL-80m_RLatLon0.09_PT076H.grib2 2026-04-11 15:11 406K
20260411T12Z_MSC_RDPS_AirTemp_IsbL-0001_RLatLon0.09_PT076H.grib2 2026-04-11 15:11 241K
20260411T12Z_MSC_RDPS_AirTemp_IsbL-0005_RLatLon0.09_PT076H.grib2 2026-04-11 15:11 255K
20260411T12Z_MSC_RDPS_AirTemp_IsbL-0010_RLatLon0.09_PT076H.grib2 2026-04-11 15:11 344K
20260411T12Z_MSC_RDPS_AirTemp_IsbL-0020_RLatLon0.09_PT076H.grib2 2026-04-11 15:11 363K
20260411T12Z_MSC_RDPS_AirTemp_IsbL-0030_RLatLon0.09_PT076H.grib2 2026-04-11 15:11 383K
20260411T12Z_MSC_RDPS_AirTemp_IsbL-0050_RLatLon0.09_PT076H.grib2 2026-04-11 15:11 334K
20260411T12Z_MSC_RDPS_AirTemp_IsbL-0100_RLatLon0.09_PT076H.grib2 2026-04-11 15:11 398K
20260411T12Z_MSC_RDPS_AirTemp_IsbL-0150_RLatLon0.09_PT076H.grib2 2026-04-11 15:11 407K
20260411T12Z_MSC_RDPS_AirTemp_IsbL-0175_RLatLon0.09_PT076H.grib2 2026-04-11 15:11 402K
20260411T12Z_MSC_RDPS_AirTemp_IsbL-0200_RLatLon0.09_PT076H.grib2 2026-04-11 15:11 406K
20260411T12Z_MSC_RDPS_AirTemp_IsbL-0225_RLatLon0.09_PT076H.grib2 2026-04-11 15:11 407K
20260411T12Z_MSC_RDPS_AirTemp_IsbL-0250_RLatLon0.09_PT076H.grib2 2026-04-11 15:11 416K
20260411T12Z_MSC_RDPS_AirTemp_IsbL-0275_RLatLon0.09_PT076H.grib2 2026-04-11 15:11 398K
20260411T12Z_MSC_RDPS_AirTemp_IsbL-0300_RLatLon0.09_PT076H.grib2 2026-04-11 15:11 430K
20260411T12Z_MSC_RDPS_AirTemp_IsbL-0350_RLatLon0.09_PT076H.grib2 2026-04-11 15:11 419K
20260411T12Z_MSC_RDPS_AirTemp_IsbL-0400_RLatLon0.09_PT076H.grib2 2026-04-11 15:11 386K
20260411T12Z_MSC_RDPS_AirTemp_IsbL-0450_RLatLon0.09_PT076H.grib2 2026-04-11 15:11 394K
20260411T12Z_MSC_RDPS_AirTemp_IsbL-0500_RLatLon0.09_PT076H.grib2 2026-04-11 15:11 407K
20260411T12Z_MSC_RDPS_AirTemp_IsbL-0550_RLatLon0.09_PT076H.grib2 2026-04-11 15:11 426K
20260411T12Z_MSC_RDPS_AirTemp_IsbL-0600_RLatLon0.09_PT076H.grib2 2026-04-11 15:11 446K
20260411T12Z_MSC_RDPS_AirTemp_IsbL-0650_RLatLon0.09_PT076H.grib2 2026-04-11 15:11 459K
20260411T12Z_MSC_RDPS_AirTemp_IsbL-0700_RLatLon0.09_PT076H.grib2 2026-04-11 15:11 376K
20260411T12Z_MSC_RDPS_AirTemp_IsbL-0750_RLatLon0.09_PT076H.grib2 2026-04-11 15:11 412K
20260411T12Z_MSC_RDPS_AirTemp_IsbL-0800_RLatLon0.09_PT076H.grib2 2026-04-11 15:11 463K
20260411T12Z_MSC_RDPS_AirTemp_IsbL-0850_RLatLon0.09_PT076H.grib2 2026-04-11 15:11 515K
20260411T12Z_MSC_RDPS_AirTemp_IsbL-0875_RLatLon0.09_PT076H.grib2 2026-04-11 15:11 526K
20260411T12Z_MSC_RDPS_AirTemp_IsbL-0900_RLatLon0.09_PT076H.grib2 2026-04-11 15:11 528K
20260411T12Z_MSC_RDPS_AirTemp_IsbL-0925_RLatLon0.09_PT076H.grib2 2026-04-11 15:11 527K
20260411T12Z_MSC_RDPS_AirTemp_IsbL-0950_RLatLon0.09_PT076H.grib2 2026-04-11 15:11 528K
20260411T12Z_MSC_RDPS_AirTemp_IsbL-0970_RLatLon0.09_PT076H.grib2 2026-04-11 15:11 536K
20260411T12Z_MSC_RDPS_AirTemp_IsbL-0985_RLatLon0.09_PT076H.grib2 2026-04-11 15:11 527K
20260411T12Z_MSC_RDPS_AirTemp_IsbL-1000_RLatLon0.09_PT076H.grib2 2026-04-11 15:11 514K
20260411T12Z_MSC_RDPS_AirTemp_IsbL-1015_RLatLon0.09_PT076H.grib2 2026-04-11 15:11 511K
20260411T12Z_MSC_RDPS_Albedo_Sfc_RLatLon0.09_PT076H.grib2 2026-04-11 15:11 168K
20260411T12Z_MSC_RDPS_CAPE_Sfc_RLatLon0.09_PT076H.grib2 2026-04-11 15:11 1.7M
20260411T12Z_MSC_RDPS_CIN_Sfc_RLatLon0.09_PT076H.grib2 2026-04-11 15:11 1.1M
20260411T12Z_MSC_RDPS_CloudWater_EAtm_RLatLon0.09_PT076H.grib2 2026-04-11 15:11 210K
20260411T12Z_MSC_RDPS_ConvectivePrecip-Accum_Sfc_RLatLon0.09_PT076H.grib2 2026-04-11 15:11 1.3M
20260411T12Z_MSC_RDPS_DewPointDepression_AGL-2m_RLatLon0.09_PT076H.grib2 2026-04-11 15:11 406K
20260411T12Z_MSC_RDPS_DewPointDepression_IsbL-0001_RLatLon0.09_PT076H.grib2 2026-04-11 15:11 193
20260411T12Z_MSC_RDPS_DewPointDepression_IsbL-0005_RLatLon0.09_PT076H.grib2 2026-04-11 15:11 193
20260411T12Z_MSC_RDPS_DewPointDepression_IsbL-0010_RLatLon0.09_PT076H.grib2 2026-04-11 15:11 193
20260411T12Z_MSC_RDPS_DewPointDepression_IsbL-0020_RLatLon0.09_PT076H.grib2 2026-04-11 15:11 193
20260411T12Z_MSC_RDPS_DewPointDepression_IsbL-0030_RLatLon0.09_PT076H.grib2 2026-04-11 15:11 35K
20260411T12Z_MSC_RDPS_DewPointDepression_IsbL-0050_RLatLon0.09_PT076H.grib2 2026-04-11 15:11 112K
20260411T12Z_MSC_RDPS_DewPointDepression_IsbL-0100_RLatLon0.09_PT076H.grib2 2026-04-11 15:11 130K
20260411T12Z_MSC_RDPS_DewPointDepression_IsbL-0150_RLatLon0.09_PT076H.grib2 2026-04-11 15:11 141K
20260411T12Z_MSC_RDPS_DewPointDepression_IsbL-0175_RLatLon0.09_PT076H.grib2 2026-04-11 15:11 169K
20260411T12Z_MSC_RDPS_DewPointDepression_IsbL-0200_RLatLon0.09_PT076H.grib2 2026-04-11 15:11 203K
20260411T12Z_MSC_RDPS_DewPointDepression_IsbL-0225_RLatLon0.09_PT076H.grib2 2026-04-11 15:11 240K
20260411T12Z_MSC_RDPS_DewPointDepression_IsbL-0250_RLatLon0.09_PT076H.grib2 2026-04-11 15:11 279K
20260411T12Z_MSC_RDPS_DewPointDepression_IsbL-0275_RLatLon0.09_PT076H.grib2 2026-04-11 15:11 289K
20260411T12Z_MSC_RDPS_DewPointDepression_IsbL-0300_RLatLon0.09_PT076H.grib2 2026-04-11 15:11 307K
20260411T12Z_MSC_RDPS_DewPointDepression_IsbL-0350_RLatLon0.09_PT076H.grib2 2026-04-11 15:11 315K
20260411T12Z_MSC_RDPS_DewPointDepression_IsbL-0400_RLatLon0.09_PT076H.grib2 2026-04-11 15:11 326K
20260411T12Z_MSC_RDPS_DewPointDepression_IsbL-0450_RLatLon0.09_PT076H.grib2 2026-04-11 15:11 337K
20260411T12Z_MSC_RDPS_DewPointDepression_IsbL-0500_RLatLon0.09_PT076H.grib2 2026-04-11 15:11 340K
20260411T12Z_MSC_RDPS_DewPointDepression_IsbL-0550_RLatLon0.09_PT076H.grib2 2026-04-11 15:11 355K
20260411T12Z_MSC_RDPS_DewPointDepression_IsbL-0600_RLatLon0.09_PT076H.grib2 2026-04-11 15:11 366K
20260411T12Z_MSC_RDPS_DewPointDepression_IsbL-0650_RLatLon0.09_PT076H.grib2 2026-04-11 15:11 374K
20260411T12Z_MSC_RDPS_DewPointDepression_IsbL-0700_RLatLon0.09_PT076H.grib2 2026-04-11 15:11 385K
20260411T12Z_MSC_RDPS_DewPointDepression_IsbL-0750_RLatLon0.09_PT076H.grib2 2026-04-11 15:11 402K
20260411T12Z_MSC_RDPS_DewPointDepression_IsbL-0800_RLatLon0.09_PT076H.grib2 2026-04-11 15:11 433K
20260411T12Z_MSC_RDPS_DewPointDepression_IsbL-0850_RLatLon0.09_PT076H.grib2 2026-04-11 15:11 471K
20260411T12Z_MSC_RDPS_DewPointDepression_IsbL-0875_RLatLon0.09_PT076H.grib2 2026-04-11 15:11 468K
20260411T12Z_MSC_RDPS_DewPointDepression_IsbL-0900_RLatLon0.09_PT076H.grib2 2026-04-11 15:11 453K
20260411T12Z_MSC_RDPS_DewPointDepression_IsbL-0925_RLatLon0.09_PT076H.grib2 2026-04-11 15:11 440K
20260411T12Z_MSC_RDPS_DewPointDepression_IsbL-0950_RLatLon0.09_PT076H.grib2 2026-04-11 15:11 434K
20260411T12Z_MSC_RDPS_DewPointDepression_IsbL-0970_RLatLon0.09_PT076H.grib2 2026-04-11 15:11 432K
20260411T12Z_MSC_RDPS_DewPointDepression_IsbL-0985_RLatLon0.09_PT076H.grib2 2026-04-11 15:11 428K
20260411T12Z_MSC_RDPS_DewPointDepression_IsbL-1000_RLatLon0.09_PT076H.grib2 2026-04-11 15:11 425K
20260411T12Z_MSC_RDPS_DewPointDepression_IsbL-1015_RLatLon0.09_PT076H.grib2 2026-04-11 15:11 421K
20260411T12Z_MSC_RDPS_DewPoint_AGL-2m_RLatLon0.09_PT076H.grib2 2026-04-11 15:11 401K
20260411T12Z_MSC_RDPS_DownwardLongwaveRadiationFlux-Accum_Sfc_RLatLon0.09_PT076H.grib2 2026-04-11 15:11 421K
20260411T12Z_MSC_RDPS_DownwardShortwaveRadiationFlux-Accum_NTAtm_RLatLon0.09_PT076H.grib2 2026-04-11 15:11 134K
20260411T12Z_MSC_RDPS_DownwardShortwaveRadiationFlux-Accum_Sfc_RLatLon0.09_PT076H.grib2 2026-04-11 15:11 598K
20260411T12Z_MSC_RDPS_FreezingRain-Accum1h_Sfc_RLatLon0.09_PT076H.grib2 2026-04-11 15:11 14K
20260411T12Z_MSC_RDPS_FreezingRain-Accum_Sfc_RLatLon0.09_PT076H.grib2 2026-04-11 15:11 170K
20260411T12Z_MSC_RDPS_GeopotentialHeight_IsbL-0001_RLatLon0.09_PT076H.grib2 2026-04-11 15:11 246K
20260411T12Z_MSC_RDPS_GeopotentialHeight_IsbL-0005_RLatLon0.09_PT076H.grib2 2026-04-11 15:11 270K
20260411T12Z_MSC_RDPS_GeopotentialHeight_IsbL-0010_RLatLon0.09_PT076H.grib2 2026-04-11 15:11 313K
20260411T12Z_MSC_RDPS_GeopotentialHeight_IsbL-0020_RLatLon0.09_PT076H.grib2 2026-04-11 15:11 313K
20260411T12Z_MSC_RDPS_GeopotentialHeight_IsbL-0030_RLatLon0.09_PT076H.grib2 2026-04-11 15:11 314K
20260411T12Z_MSC_RDPS_GeopotentialHeight_IsbL-0050_RLatLon0.09_PT076H.grib2 2026-04-11 15:11 242K
20260411T12Z_MSC_RDPS_GeopotentialHeight_IsbL-0100_RLatLon0.09_PT076H.grib2 2026-04-11 15:11 223K
20260411T12Z_MSC_RDPS_GeopotentialHeight_IsbL-0150_RLatLon0.09_PT076H.grib2 2026-04-11 15:11 262K
20260411T12Z_MSC_RDPS_GeopotentialHeight_IsbL-0175_RLatLon0.09_PT076H.grib2 2026-04-11 15:11 263K
20260411T12Z_MSC_RDPS_GeopotentialHeight_IsbL-0200_RLatLon0.09_PT076H.grib2 2026-04-11 15:11 265K
20260411T12Z_MSC_RDPS_GeopotentialHeight_IsbL-0225_RLatLon0.09_PT076H.grib2 2026-04-11 15:11 266K
20260411T12Z_MSC_RDPS_GeopotentialHeight_IsbL-0250_RLatLon0.09_PT076H.grib2 2026-04-11 15:11 267K
20260411T12Z_MSC_RDPS_GeopotentialHeight_IsbL-0275_RLatLon0.09_PT076H.grib2 2026-04-11 15:11 265K
20260411T12Z_MSC_RDPS_GeopotentialHeight_IsbL-0300_RLatLon0.09_PT076H.grib2 2026-04-11 15:11 265K
20260411T12Z_MSC_RDPS_GeopotentialHeight_IsbL-0350_RLatLon0.09_PT076H.grib2 2026-04-11 15:11 261K
20260411T12Z_MSC_RDPS_GeopotentialHeight_IsbL-0400_RLatLon0.09_PT076H.grib2 2026-04-11 15:11 256K
20260411T12Z_MSC_RDPS_GeopotentialHeight_IsbL-0450_RLatLon0.09_PT076H.grib2 2026-04-11 15:11 222K
20260411T12Z_MSC_RDPS_GeopotentialHeight_IsbL-0500_RLatLon0.09_PT076H.grib2 2026-04-11 15:11 218K
20260411T12Z_MSC_RDPS_GeopotentialHeight_IsbL-0550_RLatLon0.09_PT076H.grib2 2026-04-11 15:11 286K
20260411T12Z_MSC_RDPS_GeopotentialHeight_IsbL-0600_RLatLon0.09_PT076H.grib2 2026-04-11 15:11 283K
20260411T12Z_MSC_RDPS_GeopotentialHeight_IsbL-0650_RLatLon0.09_PT076H.grib2 2026-04-11 15:11 282K
20260411T12Z_MSC_RDPS_GeopotentialHeight_IsbL-0700_RLatLon0.09_PT076H.grib2 2026-04-11 15:11 282K
20260411T12Z_MSC_RDPS_GeopotentialHeight_IsbL-0750_RLatLon0.09_PT076H.grib2 2026-04-11 15:11 283K
20260411T12Z_MSC_RDPS_GeopotentialHeight_IsbL-0800_RLatLon0.09_PT076H.grib2 2026-04-11 15:11 266K
20260411T12Z_MSC_RDPS_GeopotentialHeight_IsbL-0850_RLatLon0.09_PT076H.grib2 2026-04-11 15:11 276K
20260411T12Z_MSC_RDPS_GeopotentialHeight_IsbL-0875_RLatLon0.09_PT076H.grib2 2026-04-11 15:11 278K
20260411T12Z_MSC_RDPS_GeopotentialHeight_IsbL-0900_RLatLon0.09_PT076H.grib2 2026-04-11 15:11 281K
20260411T12Z_MSC_RDPS_GeopotentialHeight_IsbL-0925_RLatLon0.09_PT076H.grib2 2026-04-11 15:11 283K
20260411T12Z_MSC_RDPS_GeopotentialHeight_IsbL-0950_RLatLon0.09_PT076H.grib2 2026-04-11 15:11 286K
20260411T12Z_MSC_RDPS_GeopotentialHeight_IsbL-0970_RLatLon0.09_PT076H.grib2 2026-04-11 15:11 290K
20260411T12Z_MSC_RDPS_GeopotentialHeight_IsbL-0985_RLatLon0.09_PT076H.grib2 2026-04-11 15:11 387K
20260411T12Z_MSC_RDPS_GeopotentialHeight_IsbL-1000_RLatLon0.09_PT076H.grib2 2026-04-11 15:11 400K
20260411T12Z_MSC_RDPS_GeopotentialHeight_IsbL-1015_RLatLon0.09_PT076H.grib2 2026-04-11 15:11 414K
20260411T12Z_MSC_RDPS_Humidex_Sfc_RLatLon0.09_PT076H.grib2 2026-04-11 15:11 2.4M
20260411T12Z_MSC_RDPS_IcePellets-Accum1h_Sfc_RLatLon0.09_PT076H.grib2 2026-04-11 15:11 7.7K
20260411T12Z_MSC_RDPS_IcePellets-Accum_Sfc_RLatLon0.09_PT076H.grib2 2026-04-11 15:11 40K
20260411T12Z_MSC_RDPS_KIndex_Sfc_RLatLon0.09_PT076H.grib2 2026-04-11 15:11 2.5M
20260411T12Z_MSC_RDPS_LatentHeatNetFlux_Sfc_RLatLon0.09_PT076H.grib2 2026-04-11 15:11 367K
20260411T12Z_MSC_RDPS_LiftedIndex-MU-VT_IsbL-0500_RLatLon0.09_PT076H.grib2 2026-04-11 15:11 2.4M
20260411T12Z_MSC_RDPS_NetLongwaveRadiationFlux-Accum_Sfc_RLatLon0.09_PT076H.grib2 2026-04-11 15:11 467K
20260411T12Z_MSC_RDPS_NetShortwaveRadiationFlux-Accum_Sfc_RLatLon0.09_PT076H.grib2 2026-04-11 15:11 609K
20260411T12Z_MSC_RDPS_PlanetaryBoundaryLayerHeight_Sfc_RLatLon0.09_PT076H.grib2 2026-04-11 15:11 1.2M
20260411T12Z_MSC_RDPS_Precip-Accum1h_Sfc_RLatLon0.09_PT076H.grib2 2026-04-11 15:11 1.3M
20260411T12Z_MSC_RDPS_Precip-Accum_Sfc_RLatLon0.09_PT076H.grib2 2026-04-11 15:11 2.2M
20260411T12Z_MSC_RDPS_PrecipRate_Sfc_RLatLon0.09_PT076H.grib2 2026-04-11 15:11 193K
20260411T12Z_MSC_RDPS_PrecipType-Instant_Sfc_RLatLon0.09_PT076H.grib2 2026-04-11 15:11 603K
20260411T12Z_MSC_RDPS_Pressure-Trend3h_Sfc_RLatLon0.09_PT076H.grib2 2026-04-11 15:11 1.2M
20260411T12Z_MSC_RDPS_Pressure_MSL_RLatLon0.09_PT076H.grib2 2026-04-11 15:11 333K
20260411T12Z_MSC_RDPS_Pressure_PVU-1.5_RLatLon0.09_PT076H.grib2 2026-04-11 15:11 2.5M
20260411T12Z_MSC_RDPS_Pressure_PVU-1_RLatLon0.09_PT076H.grib2 2026-04-11 15:11 2.4M
20260411T12Z_MSC_RDPS_Pressure_PVU-2_RLatLon0.09_PT076H.grib2 2026-04-11 15:11 2.4M
20260411T12Z_MSC_RDPS_Pressure_Sfc_RLatLon0.09_PT076H.grib2 2026-04-11 15:11 502K
20260411T12Z_MSC_RDPS_RadiativeTemp_Sfc_RLatLon0.09_PT076H.grib2 2026-04-11 15:11 323K
20260411T12Z_MSC_RDPS_Rain-Accum1h_Sfc_RLatLon0.09_PT076H.grib2 2026-04-11 15:11 635K
20260411T12Z_MSC_RDPS_Rain-Accum_Sfc_RLatLon0.09_PT076H.grib2 2026-04-11 15:11 1.7M
20260411T12Z_MSC_RDPS_RelativeHumidity_AGL-2m_RLatLon0.09_PT076H.grib2 2026-04-11 15:11 1.0M
20260411T12Z_MSC_RDPS_RelativeHumidity_IsbL-0010_RLatLon0.09_PT076H.grib2 2026-04-11 15:11 510K
20260411T12Z_MSC_RDPS_RelativeHumidity_IsbL-0020_RLatLon0.09_PT076H.grib2 2026-04-11 15:11 401K
20260411T12Z_MSC_RDPS_RelativeHumidity_IsbL-0030_RLatLon0.09_PT076H.grib2 2026-04-11 15:11 377K
20260411T12Z_MSC_RDPS_RelativeHumidity_IsbL-0050_RLatLon0.09_PT076H.grib2 2026-04-11 15:11 400K
20260411T12Z_MSC_RDPS_RelativeHumidity_IsbL-0100_RLatLon0.09_PT076H.grib2 2026-04-11 15:11 268K
20260411T12Z_MSC_RDPS_RelativeHumidity_IsbL-0150_RLatLon0.09_PT076H.grib2 2026-04-11 15:11 381K
20260411T12Z_MSC_RDPS_RelativeHumidity_IsbL-0175_RLatLon0.09_PT076H.grib2 2026-04-11 15:11 453K
20260411T12Z_MSC_RDPS_RelativeHumidity_IsbL-0200_RLatLon0.09_PT076H.grib2 2026-04-11 15:11 523K
20260411T12Z_MSC_RDPS_RelativeHumidity_IsbL-0225_RLatLon0.09_PT076H.grib2 2026-04-11 15:11 592K
20260411T12Z_MSC_RDPS_RelativeHumidity_IsbL-0250_RLatLon0.09_PT076H.grib2 2026-04-11 15:11 659K
20260411T12Z_MSC_RDPS_RelativeHumidity_IsbL-0275_RLatLon0.09_PT076H.grib2 2026-04-11 15:11 684K
20260411T12Z_MSC_RDPS_RelativeHumidity_IsbL-0300_RLatLon0.09_PT076H.grib2 2026-04-11 15:11 731K
20260411T12Z_MSC_RDPS_RelativeHumidity_IsbL-0350_RLatLon0.09_PT076H.grib2 2026-04-11 15:11 760K
20260411T12Z_MSC_RDPS_RelativeHumidity_IsbL-0400_RLatLon0.09_PT076H.grib2 2026-04-11 15:11 772K
20260411T12Z_MSC_RDPS_RelativeHumidity_IsbL-0450_RLatLon0.09_PT076H.grib2 2026-04-11 15:11 780K
20260411T12Z_MSC_RDPS_RelativeHumidity_IsbL-0500_RLatLon0.09_PT076H.grib2 2026-04-11 15:11 789K
20260411T12Z_MSC_RDPS_RelativeHumidity_IsbL-0550_RLatLon0.09_PT076H.grib2 2026-04-11 15:11 812K
20260411T12Z_MSC_RDPS_RelativeHumidity_IsbL-0600_RLatLon0.09_PT076H.grib2 2026-04-11 15:11 836K
20260411T12Z_MSC_RDPS_RelativeHumidity_IsbL-0650_RLatLon0.09_PT076H.grib2 2026-04-11 15:11 849K
20260411T12Z_MSC_RDPS_RelativeHumidity_IsbL-0700_RLatLon0.09_PT076H.grib2 2026-04-11 15:11 879K
20260411T12Z_MSC_RDPS_RelativeHumidity_IsbL-0750_RLatLon0.09_PT076H.grib2 2026-04-11 15:11 917K
20260411T12Z_MSC_RDPS_RelativeHumidity_IsbL-0800_RLatLon0.09_PT076H.grib2 2026-04-11 15:11 1.0M
20260411T12Z_MSC_RDPS_RelativeHumidity_IsbL-0850_RLatLon0.09_PT076H.grib2 2026-04-11 15:11 1.0M
20260411T12Z_MSC_RDPS_RelativeHumidity_IsbL-0875_RLatLon0.09_PT076H.grib2 2026-04-11 15:11 1.1M
20260411T12Z_MSC_RDPS_RelativeHumidity_IsbL-0900_RLatLon0.09_PT076H.grib2 2026-04-11 15:11 1.1M
20260411T12Z_MSC_RDPS_RelativeHumidity_IsbL-0925_RLatLon0.09_PT076H.grib2 2026-04-11 15:11 1.1M
20260411T12Z_MSC_RDPS_RelativeHumidity_IsbL-0950_RLatLon0.09_PT076H.grib2 2026-04-11 15:11 1.0M
20260411T12Z_MSC_RDPS_RelativeHumidity_IsbL-0970_RLatLon0.09_PT076H.grib2 2026-04-11 15:11 1.0M
20260411T12Z_MSC_RDPS_RelativeHumidity_IsbL-0985_RLatLon0.09_PT076H.grib2 2026-04-11 15:11 1.0M
20260411T12Z_MSC_RDPS_RelativeHumidity_IsbL-1000_RLatLon0.09_PT076H.grib2 2026-04-11 15:11 1.0M
20260411T12Z_MSC_RDPS_RelativeHumidity_IsbL-1015_RLatLon0.09_PT076H.grib2 2026-04-11 15:11 1.0M
20260411T12Z_MSC_RDPS_Runoff-Accum_Sfc_RLatLon0.09_PT076H.grib2 2026-04-11 15:11 70K
20260411T12Z_MSC_RDPS_SWEATIndex_Sfc_RLatLon0.09_PT076H.grib2 2026-04-11 15:11 2.4M
20260411T12Z_MSC_RDPS_SeeingIndex_EAtm_RLatLon0.09_PT076H.grib2 2026-04-11 15:11 1.0M
20260411T12Z_MSC_RDPS_SensibleHeatNetFlux_Sfc_RLatLon0.09_PT076H.grib2 2026-04-11 15:11 358K
20260411T12Z_MSC_RDPS_ShowalterIndex_IsbL-0500_RLatLon0.09_PT076H.grib2 2026-04-11 15:11 2.6M
20260411T12Z_MSC_RDPS_SkyTransparencyIndex_EAtm_RLatLon0.09_PT076H.grib2 2026-04-11 15:11 675K
20260411T12Z_MSC_RDPS_Snow-Accum1h_Sfc_RLatLon0.09_PT076H.grib2 2026-04-11 15:11 446K
20260411T12Z_MSC_RDPS_Snow-Accum_Sfc_RLatLon0.09_PT076H.grib2 2026-04-11 15:11 845K
20260411T12Z_MSC_RDPS_SnowDensity_Sfc_RLatLon0.09_PT076H.grib2 2026-04-11 15:11 180K
20260411T12Z_MSC_RDPS_SnowDepth_Sfc_RLatLon0.09_PT076H.grib2 2026-04-11 15:11 741K
20260411T12Z_MSC_RDPS_SoilTemp_DBS-0to10cm_RLatLon0.09_PT076H.grib2 2026-04-11 15:11 241K
20260411T12Z_MSC_RDPS_SoilTemp_Sfc_RLatLon0.09_PT076H.grib2 2026-04-11 15:11 291K
20260411T12Z_MSC_RDPS_SoilVolumetricIceContent_Sfc_RLatLon0.09_PT076H.grib2 2026-04-11 15:11 177K
20260411T12Z_MSC_RDPS_SoilVolumetricWaterContent_DBS-0to10cm_RLatLon0.09_PT076H.grib2 2026-04-11 15:11 243K
20260411T12Z_MSC_RDPS_SoilVolumetricWaterContent_DBS-0to1cm_RLatLon0.09_PT076H.grib2 2026-04-11 15:11 339K
20260411T12Z_MSC_RDPS_SpecificHumidity_AGL-120m_RLatLon0.09_PT076H.grib2 2026-04-11 15:11 475K
20260411T12Z_MSC_RDPS_SpecificHumidity_AGL-2m_RLatLon0.09_PT076H.grib2 2026-04-11 15:11 641K
20260411T12Z_MSC_RDPS_SpecificHumidity_AGL-40m_RLatLon0.09_PT076H.grib2 2026-04-11 15:11 482K
20260411T12Z_MSC_RDPS_SpecificHumidity_AGL-80m_RLatLon0.09_PT076H.grib2 2026-04-11 15:11 478K
20260411T12Z_MSC_RDPS_SpecificHumidity_IsbL-0001_RLatLon0.09_PT076H.grib2 2026-04-11 15:11 303K
20260411T12Z_MSC_RDPS_SpecificHumidity_IsbL-0005_RLatLon0.09_PT076H.grib2 2026-04-11 15:11 331K
20260411T12Z_MSC_RDPS_SpecificHumidity_IsbL-0010_RLatLon0.09_PT076H.grib2 2026-04-11 15:11 354K
20260411T12Z_MSC_RDPS_SpecificHumidity_IsbL-0020_RLatLon0.09_PT076H.grib2 2026-04-11 15:11 364K
20260411T12Z_MSC_RDPS_SpecificHumidity_IsbL-0030_RLatLon0.09_PT076H.grib2 2026-04-11 15:11 364K
20260411T12Z_MSC_RDPS_SpecificHumidity_IsbL-0050_RLatLon0.09_PT076H.grib2 2026-04-11 15:11 471K
20260411T12Z_MSC_RDPS_SpecificHumidity_IsbL-0100_RLatLon0.09_PT076H.grib2 2026-04-11 15:11 394K
20260411T12Z_MSC_RDPS_SpecificHumidity_IsbL-0150_RLatLon0.09_PT076H.grib2 2026-04-11 15:11 429K
20260411T12Z_MSC_RDPS_SpecificHumidity_IsbL-0175_RLatLon0.09_PT076H.grib2 2026-04-11 15:11 508K
20260411T12Z_MSC_RDPS_SpecificHumidity_IsbL-0200_RLatLon0.09_PT076H.grib2 2026-04-11 15:11 416K
20260411T12Z_MSC_RDPS_SpecificHumidity_IsbL-0225_RLatLon0.09_PT076H.grib2 2026-04-11 15:11 422K
20260411T12Z_MSC_RDPS_SpecificHumidity_IsbL-0250_RLatLon0.09_PT076H.grib2 2026-04-11 15:11 527K
20260411T12Z_MSC_RDPS_SpecificHumidity_IsbL-0275_RLatLon0.09_PT076H.grib2 2026-04-11 15:11 444K
20260411T12Z_MSC_RDPS_SpecificHumidity_IsbL-0300_RLatLon0.09_PT076H.grib2 2026-04-11 15:11 542K
20260411T12Z_MSC_RDPS_SpecificHumidity_IsbL-0350_RLatLon0.09_PT076H.grib2 2026-04-11 15:11 513K
20260411T12Z_MSC_RDPS_SpecificHumidity_IsbL-0400_RLatLon0.09_PT076H.grib2 2026-04-11 15:11 493K
20260411T12Z_MSC_RDPS_SpecificHumidity_IsbL-0450_RLatLon0.09_PT076H.grib2 2026-04-11 15:11 547K
20260411T12Z_MSC_RDPS_SpecificHumidity_IsbL-0500_RLatLon0.09_PT076H.grib2 2026-04-11 15:11 485K
20260411T12Z_MSC_RDPS_SpecificHumidity_IsbL-0550_RLatLon0.09_PT076H.grib2 2026-04-11 15:11 544K
20260411T12Z_MSC_RDPS_SpecificHumidity_IsbL-0600_RLatLon0.09_PT076H.grib2 2026-04-11 15:11 614K
20260411T12Z_MSC_RDPS_SpecificHumidity_IsbL-0650_RLatLon0.09_PT076H.grib2 2026-04-11 15:11 532K
20260411T12Z_MSC_RDPS_SpecificHumidity_IsbL-0700_RLatLon0.09_PT076H.grib2 2026-04-11 15:11 573K
20260411T12Z_MSC_RDPS_SpecificHumidity_IsbL-0750_RLatLon0.09_PT076H.grib2 2026-04-11 15:11 625K
20260411T12Z_MSC_RDPS_SpecificHumidity_IsbL-0800_RLatLon0.09_PT076H.grib2 2026-04-11 15:11 708K
20260411T12Z_MSC_RDPS_SpecificHumidity_IsbL-0850_RLatLon0.09_PT076H.grib2 2026-04-11 15:11 786K
20260411T12Z_MSC_RDPS_SpecificHumidity_IsbL-0875_RLatLon0.09_PT076H.grib2 2026-04-11 15:11 805K
20260411T12Z_MSC_RDPS_SpecificHumidity_IsbL-0900_RLatLon0.09_PT076H.grib2 2026-04-11 15:11 811K
20260411T12Z_MSC_RDPS_SpecificHumidity_IsbL-0925_RLatLon0.09_PT076H.grib2 2026-04-11 15:11 813K
20260411T12Z_MSC_RDPS_SpecificHumidity_IsbL-0950_RLatLon0.09_PT076H.grib2 2026-04-11 15:11 814K
20260411T12Z_MSC_RDPS_SpecificHumidity_IsbL-0970_RLatLon0.09_PT076H.grib2 2026-04-11 15:11 673K
20260411T12Z_MSC_RDPS_SpecificHumidity_IsbL-0985_RLatLon0.09_PT076H.grib2 2026-04-11 15:11 668K
20260411T12Z_MSC_RDPS_SpecificHumidity_IsbL-1000_RLatLon0.09_PT076H.grib2 2026-04-11 15:11 659K
20260411T12Z_MSC_RDPS_SpecificHumidity_IsbL-1015_RLatLon0.09_PT076H.grib2 2026-04-11 15:11 649K
20260411T12Z_MSC_RDPS_SpecificHumidity_Sfc_RLatLon0.09_PT076H.grib2 2026-04-11 15:11 301K
20260411T12Z_MSC_RDPS_StormRelativeHelicity_EtaL-10000_RLatLon0.09_PT076H.grib2 2026-04-11 15:11 1.1M
20260411T12Z_MSC_RDPS_StormSeverityIndex_EtaL-10000_RLatLon0.09_PT076H.grib2 2026-04-11 15:11 1.2M
20260411T12Z_MSC_RDPS_Thickness_IsbL-0850to0700_RLatLon0.09_PT076H.grib2 2026-04-11 15:11 179K
20260411T12Z_MSC_RDPS_Thickness_IsbL-1000to0500_RLatLon0.09_PT076H.grib2 2026-04-11 15:11 198K
20260411T12Z_MSC_RDPS_Thickness_IsbL-1000to0850_RLatLon0.09_PT076H.grib2 2026-04-11 15:11 190K
20260411T12Z_MSC_RDPS_TotalCloudCover_Sfc_RLatLon0.09_PT076H.grib2 2026-04-11 15:11 653K
20260411T12Z_MSC_RDPS_TotalTotalsIndex_Sfc_RLatLon0.09_PT076H.grib2 2026-04-11 15:11 2.4M
20260411T12Z_MSC_RDPS_UVIndex-ClearSky_Sfc_RLatLon0.09_PT076H.grib2 2026-04-11 15:11 190K
20260411T12Z_MSC_RDPS_UVIndex_Sfc_RLatLon0.09_PT076H.grib2 2026-04-11 15:11 443K
20260411T12Z_MSC_RDPS_UpwardLongwaveRadiationFlux_NTAtm_RLatLon0.09_PT076H.grib2 2026-04-11 15:11 481K
20260411T12Z_MSC_RDPS_UpwardShortwaveRadiationFlux_NTAtm_RLatLon0.09_PT076H.grib2 2026-04-11 15:11 496K
20260411T12Z_MSC_RDPS_VerticalVelocity_IsbL-0250_RLatLon0.09_PT076H.grib2 2026-04-11 15:11 570K
20260411T12Z_MSC_RDPS_VerticalVelocity_IsbL-0500_RLatLon0.09_PT076H.grib2 2026-04-11 15:11 544K
20260411T12Z_MSC_RDPS_VerticalVelocity_IsbL-0700_RLatLon0.09_PT076H.grib2 2026-04-11 15:11 621K
20260411T12Z_MSC_RDPS_VerticalVelocity_IsbL-0850_RLatLon0.09_PT076H.grib2 2026-04-11 15:11 699K
20260411T12Z_MSC_RDPS_VerticalWindShear_EtaL-6500_RLatLon0.09_PT076H.grib2 2026-04-11 15:11 1.2M
20260411T12Z_MSC_RDPS_WindChill_Sfc_RLatLon0.09_PT076H.grib2 2026-04-11 15:11 1.2M
20260411T12Z_MSC_RDPS_WindDir_AGL-10m_RLatLon0.09_PT076H.grib2 2026-04-11 15:11 954K
20260411T12Z_MSC_RDPS_WindDir_AGL-120m_RLatLon0.09_PT076H.grib2 2026-04-11 15:11 590K
20260411T12Z_MSC_RDPS_WindDir_AGL-40m_RLatLon0.09_PT076H.grib2 2026-04-11 15:11 616K
20260411T12Z_MSC_RDPS_WindDir_AGL-80m_RLatLon0.09_PT076H.grib2 2026-04-11 15:11 600K
20260411T12Z_MSC_RDPS_WindDir_IsbL-0001_RLatLon0.09_PT076H.grib2 2026-04-11 15:11 263K
20260411T12Z_MSC_RDPS_WindDir_IsbL-0005_RLatLon0.09_PT076H.grib2 2026-04-11 15:11 326K
20260411T12Z_MSC_RDPS_WindDir_IsbL-0010_RLatLon0.09_PT076H.grib2 2026-04-11 15:11 341K
20260411T12Z_MSC_RDPS_WindDir_IsbL-0020_RLatLon0.09_PT076H.grib2 2026-04-11 15:11 366K
20260411T12Z_MSC_RDPS_WindDir_IsbL-0030_RLatLon0.09_PT076H.grib2 2026-04-11 15:11 370K
20260411T12Z_MSC_RDPS_WindDir_IsbL-0050_RLatLon0.09_PT076H.grib2 2026-04-11 15:11 410K
20260411T12Z_MSC_RDPS_WindDir_IsbL-0100_RLatLon0.09_PT076H.grib2 2026-04-11 15:11 386K
20260411T12Z_MSC_RDPS_WindDir_IsbL-0150_RLatLon0.09_PT076H.grib2 2026-04-11 15:11 373K
20260411T12Z_MSC_RDPS_WindDir_IsbL-0175_RLatLon0.09_PT076H.grib2 2026-04-11 15:11 397K
20260411T12Z_MSC_RDPS_WindDir_IsbL-0200_RLatLon0.09_PT076H.grib2 2026-04-11 15:11 418K
20260411T12Z_MSC_RDPS_WindDir_IsbL-0225_RLatLon0.09_PT076H.grib2 2026-04-11 15:11 426K
20260411T12Z_MSC_RDPS_WindDir_IsbL-0250_RLatLon0.09_PT076H.grib2 2026-04-11 15:11 430K
20260411T12Z_MSC_RDPS_WindDir_IsbL-0275_RLatLon0.09_PT076H.grib2 2026-04-11 15:11 450K
20260411T12Z_MSC_RDPS_WindDir_IsbL-0300_RLatLon0.09_PT076H.grib2 2026-04-11 15:11 452K
20260411T12Z_MSC_RDPS_WindDir_IsbL-0350_RLatLon0.09_PT076H.grib2 2026-04-11 15:11 476K
20260411T12Z_MSC_RDPS_WindDir_IsbL-0400_RLatLon0.09_PT076H.grib2 2026-04-11 15:11 505K
20260411T12Z_MSC_RDPS_WindDir_IsbL-0450_RLatLon0.09_PT076H.grib2 2026-04-11 15:11 526K
20260411T12Z_MSC_RDPS_WindDir_IsbL-0500_RLatLon0.09_PT076H.grib2 2026-04-11 15:11 538K
20260411T12Z_MSC_RDPS_WindDir_IsbL-0550_RLatLon0.09_PT076H.grib2 2026-04-11 15:11 556K
20260411T12Z_MSC_RDPS_WindDir_IsbL-0600_RLatLon0.09_PT076H.grib2 2026-04-11 15:11 581K
20260411T12Z_MSC_RDPS_WindDir_IsbL-0650_RLatLon0.09_PT076H.grib2 2026-04-11 15:11 622K
20260411T12Z_MSC_RDPS_WindDir_IsbL-0700_RLatLon0.09_PT076H.grib2 2026-04-11 15:11 659K
20260411T12Z_MSC_RDPS_WindDir_IsbL-0750_RLatLon0.09_PT076H.grib2 2026-04-11 15:11 700K
20260411T12Z_MSC_RDPS_WindDir_IsbL-0800_RLatLon0.09_PT076H.grib2 2026-04-11 15:11 754K
20260411T12Z_MSC_RDPS_WindDir_IsbL-0850_RLatLon0.09_PT076H.grib2 2026-04-11 15:11 827K
20260411T12Z_MSC_RDPS_WindDir_IsbL-0875_RLatLon0.09_PT076H.grib2 2026-04-11 15:11 853K
20260411T12Z_MSC_RDPS_WindDir_IsbL-0900_RLatLon0.09_PT076H.grib2 2026-04-11 15:11 866K
20260411T12Z_MSC_RDPS_WindDir_IsbL-0925_RLatLon0.09_PT076H.grib2 2026-04-11 15:11 877K
20260411T12Z_MSC_RDPS_WindDir_IsbL-0950_RLatLon0.09_PT076H.grib2 2026-04-11 15:11 885K
20260411T12Z_MSC_RDPS_WindDir_IsbL-0970_RLatLon0.09_PT076H.grib2 2026-04-11 15:11 895K
20260411T12Z_MSC_RDPS_WindDir_IsbL-0985_RLatLon0.09_PT076H.grib2 2026-04-11 15:11 907K
20260411T12Z_MSC_RDPS_WindDir_IsbL-1000_RLatLon0.09_PT076H.grib2 2026-04-11 15:11 919K
20260411T12Z_MSC_RDPS_WindDir_IsbL-1015_RLatLon0.09_PT076H.grib2 2026-04-11 15:11 936K
20260411T12Z_MSC_RDPS_WindGust-Max_AGL-10m_RLatLon0.09_PT076H.grib2 2026-04-11 15:11 1.0M
20260411T12Z_MSC_RDPS_WindGust-Min_AGL-10m_RLatLon0.09_PT076H.grib2 2026-04-11 15:11 1.0M
20260411T12Z_MSC_RDPS_WindGust_AGL-10m_RLatLon0.09_PT076H.grib2 2026-04-11 15:11 1.0M
20260411T12Z_MSC_RDPS_WindSpeed_AGL-10m_RLatLon0.09_PT076H.grib2 2026-04-11 15:11 847K
20260411T12Z_MSC_RDPS_WindSpeed_AGL-120m_RLatLon0.09_PT076H.grib2 2026-04-11 15:11 540K
20260411T12Z_MSC_RDPS_WindSpeed_AGL-40m_RLatLon0.09_PT076H.grib2 2026-04-11 15:11 544K
20260411T12Z_MSC_RDPS_WindSpeed_AGL-80m_RLatLon0.09_PT076H.grib2 2026-04-11 15:11 541K
20260411T12Z_MSC_RDPS_WindSpeed_IsbL-0001_RLatLon0.09_PT076H.grib2 2026-04-11 15:11 295K
20260411T12Z_MSC_RDPS_WindSpeed_IsbL-0005_RLatLon0.09_PT076H.grib2 2026-04-11 15:11 310K
20260411T12Z_MSC_RDPS_WindSpeed_IsbL-0010_RLatLon0.09_PT076H.grib2 2026-04-11 15:11 349K
20260411T12Z_MSC_RDPS_WindSpeed_IsbL-0020_RLatLon0.09_PT076H.grib2 2026-04-11 15:11 335K
20260411T12Z_MSC_RDPS_WindSpeed_IsbL-0030_RLatLon0.09_PT076H.grib2 2026-04-11 15:11 336K
20260411T12Z_MSC_RDPS_WindSpeed_IsbL-0050_RLatLon0.09_PT076H.grib2 2026-04-11 15:11 379K
20260411T12Z_MSC_RDPS_WindSpeed_IsbL-0100_RLatLon0.09_PT076H.grib2 2026-04-11 15:11 492K
20260411T12Z_MSC_RDPS_WindSpeed_IsbL-0150_RLatLon0.09_PT076H.grib2 2026-04-11 15:11 369K
20260411T12Z_MSC_RDPS_WindSpeed_IsbL-0175_RLatLon0.09_PT076H.grib2 2026-04-11 15:11 392K
20260411T12Z_MSC_RDPS_WindSpeed_IsbL-0200_RLatLon0.09_PT076H.grib2 2026-04-11 15:11 432K
20260411T12Z_MSC_RDPS_WindSpeed_IsbL-0225_RLatLon0.09_PT076H.grib2 2026-04-11 15:11 440K
20260411T12Z_MSC_RDPS_WindSpeed_IsbL-0250_RLatLon0.09_PT076H.grib2 2026-04-11 15:11 442K
20260411T12Z_MSC_RDPS_WindSpeed_IsbL-0275_RLatLon0.09_PT076H.grib2 2026-04-11 15:11 455K
20260411T12Z_MSC_RDPS_WindSpeed_IsbL-0300_RLatLon0.09_PT076H.grib2 2026-04-11 15:11 451K
20260411T12Z_MSC_RDPS_WindSpeed_IsbL-0350_RLatLon0.09_PT076H.grib2 2026-04-11 15:11 462K
20260411T12Z_MSC_RDPS_WindSpeed_IsbL-0400_RLatLon0.09_PT076H.grib2 2026-04-11 15:11 470K
20260411T12Z_MSC_RDPS_WindSpeed_IsbL-0450_RLatLon0.09_PT076H.grib2 2026-04-11 15:11 456K
20260411T12Z_MSC_RDPS_WindSpeed_IsbL-0500_RLatLon0.09_PT076H.grib2 2026-04-11 15:11 457K
20260411T12Z_MSC_RDPS_WindSpeed_IsbL-0550_RLatLon0.09_PT076H.grib2 2026-04-11 15:11 577K
20260411T12Z_MSC_RDPS_WindSpeed_IsbL-0600_RLatLon0.09_PT076H.grib2 2026-04-11 15:11 589K
20260411T12Z_MSC_RDPS_WindSpeed_IsbL-0650_RLatLon0.09_PT076H.grib2 2026-04-11 15:11 611K
20260411T12Z_MSC_RDPS_WindSpeed_IsbL-0700_RLatLon0.09_PT076H.grib2 2026-04-11 15:11 679K
20260411T12Z_MSC_RDPS_WindSpeed_IsbL-0750_RLatLon0.09_PT076H.grib2 2026-04-11 15:11 709K
20260411T12Z_MSC_RDPS_WindSpeed_IsbL-0800_RLatLon0.09_PT076H.grib2 2026-04-11 15:11 758K
20260411T12Z_MSC_RDPS_WindSpeed_IsbL-0850_RLatLon0.09_PT076H.grib2 2026-04-11 15:11 826K
20260411T12Z_MSC_RDPS_WindSpeed_IsbL-0875_RLatLon0.09_PT076H.grib2 2026-04-11 15:11 847K
20260411T12Z_MSC_RDPS_WindSpeed_IsbL-0900_RLatLon0.09_PT076H.grib2 2026-04-11 15:11 861K
20260411T12Z_MSC_RDPS_WindSpeed_IsbL-0925_RLatLon0.09_PT076H.grib2 2026-04-11 15:11 866K
20260411T12Z_MSC_RDPS_WindSpeed_IsbL-0950_RLatLon0.09_PT076H.grib2 2026-04-11 15:11 865K
20260411T12Z_MSC_RDPS_WindSpeed_IsbL-0970_RLatLon0.09_PT076H.grib2 2026-04-11 15:11 866K
20260411T12Z_MSC_RDPS_WindSpeed_IsbL-0985_RLatLon0.09_PT076H.grib2 2026-04-11 15:11 860K
20260411T12Z_MSC_RDPS_WindSpeed_IsbL-1000_RLatLon0.09_PT076H.grib2 2026-04-11 15:11 856K
20260411T12Z_MSC_RDPS_WindSpeed_IsbL-1015_RLatLon0.09_PT076H.grib2 2026-04-11 15:11 846K
20260411T12Z_MSC_RDPS_WindU_AGL-10m_RLatLon0.09_PT076H.grib2 2026-04-11 15:11 437K
20260411T12Z_MSC_RDPS_WindU_AGL-120m_RLatLon0.09_PT076H.grib2 2026-04-11 15:11 539K
20260411T12Z_MSC_RDPS_WindU_AGL-40m_RLatLon0.09_PT076H.grib2 2026-04-11 15:11 542K
20260411T12Z_MSC_RDPS_WindU_AGL-80m_RLatLon0.09_PT076H.grib2 2026-04-11 15:11 539K
20260411T12Z_MSC_RDPS_WindU_IsbL-0001_RLatLon0.09_PT076H.grib2 2026-04-11 15:11 264K
20260411T12Z_MSC_RDPS_WindU_IsbL-0005_RLatLon0.09_PT076H.grib2 2026-04-11 15:11 302K
20260411T12Z_MSC_RDPS_WindU_IsbL-0010_RLatLon0.09_PT076H.grib2 2026-04-11 15:11 313K
20260411T12Z_MSC_RDPS_WindU_IsbL-0020_RLatLon0.09_PT076H.grib2 2026-04-11 15:11 333K
20260411T12Z_MSC_RDPS_WindU_IsbL-0030_RLatLon0.09_PT076H.grib2 2026-04-11 15:11 367K
20260411T12Z_MSC_RDPS_WindU_IsbL-0050_RLatLon0.09_PT076H.grib2 2026-04-11 15:11 370K
20260411T12Z_MSC_RDPS_WindU_IsbL-0100_RLatLon0.09_PT076H.grib2 2026-04-11 15:11 345K
20260411T12Z_MSC_RDPS_WindU_IsbL-0150_RLatLon0.09_PT076H.grib2 2026-04-11 15:11 388K
20260411T12Z_MSC_RDPS_WindU_IsbL-0175_RLatLon0.09_PT076H.grib2 2026-04-11 15:11 410K
20260411T12Z_MSC_RDPS_WindU_IsbL-0200_RLatLon0.09_PT076H.grib2 2026-04-11 15:11 426K
20260411T12Z_MSC_RDPS_WindU_IsbL-0225_RLatLon0.09_PT076H.grib2 2026-04-11 15:11 335K
20260411T12Z_MSC_RDPS_WindU_IsbL-0250_RLatLon0.09_PT076H.grib2 2026-04-11 15:11 336K
20260411T12Z_MSC_RDPS_WindU_IsbL-0275_RLatLon0.09_PT076H.grib2 2026-04-11 15:11 348K
20260411T12Z_MSC_RDPS_WindU_IsbL-0300_RLatLon0.09_PT076H.grib2 2026-04-11 15:11 345K
20260411T12Z_MSC_RDPS_WindU_IsbL-0350_RLatLon0.09_PT076H.grib2 2026-04-11 15:11 352K
20260411T12Z_MSC_RDPS_WindU_IsbL-0400_RLatLon0.09_PT076H.grib2 2026-04-11 15:11 460K
20260411T12Z_MSC_RDPS_WindU_IsbL-0450_RLatLon0.09_PT076H.grib2 2026-04-11 15:11 463K
20260411T12Z_MSC_RDPS_WindU_IsbL-0500_RLatLon0.09_PT076H.grib2 2026-04-11 15:11 465K
20260411T12Z_MSC_RDPS_WindU_IsbL-0550_RLatLon0.09_PT076H.grib2 2026-04-11 15:11 469K
20260411T12Z_MSC_RDPS_WindU_IsbL-0600_RLatLon0.09_PT076H.grib2 2026-04-11 15:11 478K
20260411T12Z_MSC_RDPS_WindU_IsbL-0650_RLatLon0.09_PT076H.grib2 2026-04-11 15:11 497K
20260411T12Z_MSC_RDPS_WindU_IsbL-0700_RLatLon0.09_PT076H.grib2 2026-04-11 15:11 518K
20260411T12Z_MSC_RDPS_WindU_IsbL-0750_RLatLon0.09_PT076H.grib2 2026-04-11 15:11 544K
20260411T12Z_MSC_RDPS_WindU_IsbL-0800_RLatLon0.09_PT076H.grib2 2026-04-11 15:11 575K
20260411T12Z_MSC_RDPS_WindU_IsbL-0850_RLatLon0.09_PT076H.grib2 2026-04-11 15:11 633K
20260411T12Z_MSC_RDPS_WindU_IsbL-0875_RLatLon0.09_PT076H.grib2 2026-04-11 15:11 651K
20260411T12Z_MSC_RDPS_WindU_IsbL-0900_RLatLon0.09_PT076H.grib2 2026-04-11 15:11 661K
20260411T12Z_MSC_RDPS_WindU_IsbL-0925_RLatLon0.09_PT076H.grib2 2026-04-11 15:11 665K
20260411T12Z_MSC_RDPS_WindU_IsbL-0950_RLatLon0.09_PT076H.grib2 2026-04-11 15:11 663K
20260411T12Z_MSC_RDPS_WindU_IsbL-0970_RLatLon0.09_PT076H.grib2 2026-04-11 15:11 803K
20260411T12Z_MSC_RDPS_WindU_IsbL-0985_RLatLon0.09_PT076H.grib2 2026-04-11 15:11 800K
20260411T12Z_MSC_RDPS_WindU_IsbL-1000_RLatLon0.09_PT076H.grib2 2026-04-11 15:11 797K
20260411T12Z_MSC_RDPS_WindU_IsbL-1015_RLatLon0.09_PT076H.grib2 2026-04-11 15:11 789K
20260411T12Z_MSC_RDPS_WindV_AGL-10m_RLatLon0.09_PT076H.grib2 2026-04-11 15:11 434K
20260411T12Z_MSC_RDPS_WindV_AGL-120m_RLatLon0.09_PT076H.grib2 2026-04-11 15:11 536K
20260411T12Z_MSC_RDPS_WindV_AGL-40m_RLatLon0.09_PT076H.grib2 2026-04-11 15:11 538K
20260411T12Z_MSC_RDPS_WindV_AGL-80m_RLatLon0.09_PT076H.grib2 2026-04-11 15:11 536K
20260411T12Z_MSC_RDPS_WindV_IsbL-0001_RLatLon0.09_PT076H.grib2 2026-04-11 15:11 209K
20260411T12Z_MSC_RDPS_WindV_IsbL-0005_RLatLon0.09_PT076H.grib2 2026-04-11 15:11 237K
20260411T12Z_MSC_RDPS_WindV_IsbL-0010_RLatLon0.09_PT076H.grib2 2026-04-11 15:11 314K
20260411T12Z_MSC_RDPS_WindV_IsbL-0020_RLatLon0.09_PT076H.grib2 2026-04-11 15:11 366K
20260411T12Z_MSC_RDPS_WindV_IsbL-0030_RLatLon0.09_PT076H.grib2 2026-04-11 15:11 367K
20260411T12Z_MSC_RDPS_WindV_IsbL-0050_RLatLon0.09_PT076H.grib2 2026-04-11 15:11 402K
20260411T12Z_MSC_RDPS_WindV_IsbL-0100_RLatLon0.09_PT076H.grib2 2026-04-11 15:11 343K
20260411T12Z_MSC_RDPS_WindV_IsbL-0150_RLatLon0.09_PT076H.grib2 2026-04-11 15:11 385K
20260411T12Z_MSC_RDPS_WindV_IsbL-0175_RLatLon0.09_PT076H.grib2 2026-04-11 15:11 407K
20260411T12Z_MSC_RDPS_WindV_IsbL-0200_RLatLon0.09_PT076H.grib2 2026-04-11 15:11 329K
20260411T12Z_MSC_RDPS_WindV_IsbL-0225_RLatLon0.09_PT076H.grib2 2026-04-11 15:11 335K
20260411T12Z_MSC_RDPS_WindV_IsbL-0250_RLatLon0.09_PT076H.grib2 2026-04-11 15:11 333K
20260411T12Z_MSC_RDPS_WindV_IsbL-0275_RLatLon0.09_PT076H.grib2 2026-04-11 15:11 344K
20260411T12Z_MSC_RDPS_WindV_IsbL-0300_RLatLon0.09_PT076H.grib2 2026-04-11 15:11 340K
20260411T12Z_MSC_RDPS_WindV_IsbL-0350_RLatLon0.09_PT076H.grib2 2026-04-11 15:11 347K
20260411T12Z_MSC_RDPS_WindV_IsbL-0400_RLatLon0.09_PT076H.grib2 2026-04-11 15:11 355K
20260411T12Z_MSC_RDPS_WindV_IsbL-0450_RLatLon0.09_PT076H.grib2 2026-04-11 15:11 460K
20260411T12Z_MSC_RDPS_WindV_IsbL-0500_RLatLon0.09_PT076H.grib2 2026-04-11 15:11 462K
20260411T12Z_MSC_RDPS_WindV_IsbL-0550_RLatLon0.09_PT076H.grib2 2026-04-11 15:11 466K
20260411T12Z_MSC_RDPS_WindV_IsbL-0600_RLatLon0.09_PT076H.grib2 2026-04-11 15:11 476K
20260411T12Z_MSC_RDPS_WindV_IsbL-0650_RLatLon0.09_PT076H.grib2 2026-04-11 15:11 493K
20260411T12Z_MSC_RDPS_WindV_IsbL-0700_RLatLon0.09_PT076H.grib2 2026-04-11 15:11 514K
20260411T12Z_MSC_RDPS_WindV_IsbL-0750_RLatLon0.09_PT076H.grib2 2026-04-11 15:11 526K
20260411T12Z_MSC_RDPS_WindV_IsbL-0800_RLatLon0.09_PT076H.grib2 2026-04-11 15:11 570K
20260411T12Z_MSC_RDPS_WindV_IsbL-0850_RLatLon0.09_PT076H.grib2 2026-04-11 15:11 627K
20260411T12Z_MSC_RDPS_WindV_IsbL-0875_RLatLon0.09_PT076H.grib2 2026-04-11 15:11 646K
20260411T12Z_MSC_RDPS_WindV_IsbL-0900_RLatLon0.09_PT076H.grib2 2026-04-11 15:11 657K
20260411T12Z_MSC_RDPS_WindV_IsbL-0925_RLatLon0.09_PT076H.grib2 2026-04-11 15:11 661K
20260411T12Z_MSC_RDPS_WindV_IsbL-0950_RLatLon0.09_PT076H.grib2 2026-04-11 15:11 659K
20260411T12Z_MSC_RDPS_WindV_IsbL-0970_RLatLon0.09_PT076H.grib2 2026-04-11 15:11 799K
20260411T12Z_MSC_RDPS_WindV_IsbL-0985_RLatLon0.09_PT076H.grib2 2026-04-11 15:11 796K
20260411T12Z_MSC_RDPS_WindV_IsbL-1000_RLatLon0.09_PT076H.grib2 2026-04-11 15:11 792K
20260411T12Z_MSC_RDPS_WindV_IsbL-1015_RLatLon0.09_PT076H.grib2 2026-04-11 15:11 785K